Arbor Vitae, WI

8:19 PM CDT on June 24, 2017 (GMT -0500)
Lakeland-Lee Memorial

Weather History for KARV - October, 2011

Change the Weather History Date:

Sunday, October 30, 2011

  Actual Average Record
Temperature  
Mean Temperature 36 °F -  
Max Temperature 43 °F 48 °F 78 °F (1950)
Min Temperature 29 °F 28 °F 3 °F (1925)
Degree Days  
Heating Degree Days 29    
Moisture  
Dew Point 32 °F    
Average Humidity 80    
Maximum Humidity 90    
Minimum Humidity 61    
Precipitation  
Precipitation 0.03 in - - ()
Sea Level Pressure  
Sea Level Pressure 29.91 in    
Wind  
Wind Speed 4 mph (ESE)    
Max Wind Speed 15 mph    
Max Gust Speed 18 mph    
Visibility 10 miles    
Events Rain    
Averages and records for this station are not official NWS values.
T = Trace of Precipitation, MM = Missing Value Source: NWS Daily Summary

Daily Weather History Graph

Daily Weather History Graph

Search for Another Location

Airport or City:

Trip Planner

Search our weather history database for the weather conditions in past years. The results will help you decide how hot, cold, wet, or windy it might be!

Date:

Astronomy

Oct. 30, 2011 Rise Set
Actual Time 7:36 AM CDT 5:48 PM CDT
Civil Twilight 7:05 AM CDT 6:19 PM CDT
Nautical Twilight 6:29 AM CDT 6:54 PM CDT
Astronomical Twilight 5:55 AM CDT 7:29 PM CDT
Moon 12:05 PM CDT (10/30) 9:08 PM CDT (10/30)
Length of Visible Light 11h 14m
Length of Day
10h 12m
Waxing Crescent, 20% of the Moon is Illuminated
Oct 30
Waxing Crescent
Nov 2
First Quarter
Nov 10
Full
Nov 18
Last Quarter
Nov 25
New

Hourly Weather History & Observations

Time (CDT) Temp. Windchill Dew Point Humidity Pressure Visibility Wind Dir Wind Speed Gust Speed Precip Events Conditions
12:15 AM 30.0 °F - 26.6 °F 87% 30.02 in 10.0 mi Calm Calm - N/A   Clear
12:35 AM 30.2 °F - 27.1 °F 88% 30.02 in 10.0 mi Calm Calm - N/A   Clear
12:55 AM 29.3 °F - 26.4 °F 89% 30.02 in 10.0 mi Calm Calm - N/A   Clear
1:15 AM 29.3 °F - 26.2 °F 88% 30.01 in 10.0 mi Calm Calm - N/A   Clear
1:35 AM 30.7 °F - 27.3 °F 87% 30.01 in 10.0 mi Calm Calm - N/A   Clear
1:55 AM 31.8 °F 28.5 °F 28.4 °F 87% 30.01 in 10.0 mi ESE 3.5 mph - N/A   Clear
2:15 AM 31.8 °F - 28.4 °F 87% 30.01 in 10.0 mi Calm Calm - N/A   Clear
3:15 AM 31.8 °F 27.3 °F 27.9 °F 85% 29.99 in 10.0 mi ESE 4.6 mph - N/A   Clear
3:35 AM 32.0 °F 28.7 °F 27.5 °F 83% 29.99 in 10.0 mi ESE 3.5 mph - N/A   Clear
3:55 AM 32.0 °F 28.7 °F 27.5 °F 83% 29.98 in 10.0 mi ESE 3.5 mph - N/A   Clear
4:35 AM 33.8 °F 28.6 °F 28.4 °F 81% 29.98 in 10.0 mi ESE 5.8 mph - N/A   Scattered Clouds
4:55 AM 34.7 °F 30.6 °F 28.8 °F 79% 29.97 in 10.0 mi SE 4.6 mph - N/A   Scattered Clouds
5:15 AM 34.0 °F 29.8 °F 27.9 °F 78% 29.97 in 10.0 mi ESE 4.6 mph - N/A   Clear
5:35 AM 34.0 °F 28.8 °F 27.7 °F 78% 29.97 in 10.0 mi ESE 5.8 mph - N/A   Clear
5:55 AM 34.0 °F 29.8 °F 27.9 °F 78% 29.96 in 10.0 mi ESE 4.6 mph - N/A   Clear
6:15 AM 33.8 °F 29.6 °F 27.9 °F 79% 29.96 in 10.0 mi ESE 4.6 mph - N/A   Scattered Clouds
6:35 AM 34.0 °F 29.8 °F 27.9 °F 78% 29.96 in 10.0 mi SE 4.6 mph - N/A   Mostly Cloudy
6:55 AM 35.1 °F 31.0 °F 28.2 °F 76% 29.96 in 10.0 mi SE 4.6 mph - N/A   Overcast
7:15 AM 36.5 °F 31.8 °F 29.1 °F 75% 29.96 in 10.0 mi ESE 5.8 mph - N/A   Overcast
7:35 AM 36.5 °F 31.8 °F 28.9 °F 74% 29.95 in 10.0 mi ESE 5.8 mph - N/A   Overcast
7:55 AM 36.5 °F 31.0 °F 28.0 °F 71% 29.95 in 10.0 mi ESE 6.9 mph - N/A   Overcast
8:15 AM 36.5 °F 31.8 °F 28.6 °F 73% 29.95 in 10.0 mi ESE 5.8 mph - N/A   Overcast
8:35 AM 36.5 °F 31.8 °F 28.0 °F 71% 29.95 in 10.0 mi SE 5.8 mph - N/A   Mostly Cloudy
8:55 AM 36.5 °F 31.0 °F 27.5 °F 70% 29.95 in 10.0 mi ESE 6.9 mph - N/A   Mostly Cloudy
9:15 AM 36.5 °F 31.8 °F 26.8 °F 68% 29.95 in 10.0 mi SE 5.8 mph - N/A   Scattered Clouds
9:35 AM 38.1 °F 34.6 °F 27.5 °F 66% 29.94 in 10.0 mi SSE 4.6 mph - N/A   Mostly Cloudy
9:55 AM 39.2 °F 33.0 °F 27.0 °F 62% 29.94 in 10.0 mi SE 9.2 mph - N/A   Mostly Cloudy
10:15 AM 39.4 °F 33.8 °F 26.8 °F 61% 29.93 in 10.0 mi SE 8.1 mph - N/A   Overcast
10:35 AM 39.4 °F 31.8 °F 29.1 °F 67% 29.93 in 7.0 mi SSE 12.7 mph 18.4 mph N/A   Light Drizzle
10:55 AM 39.2 °F 31.6 °F 32.7 °F 78% 29.93 in 7.0 mi SE 12.7 mph 17.3 mph N/A Rain Light Rain
11:15 AM 39.2 °F 32.5 °F 34.5 °F 83% 29.93 in 5.0 mi ESE 10.4 mph - 0.01 in   Drizzle
11:35 AM 38.8 °F 32.6 °F 35.2 °F 87% 29.92 in 5.0 mi ESE 9.2 mph 16.1 mph 0.02 in Rain Light Rain
11:55 AM 37.8 °F 30.2 °F 34.7 °F 89% 29.91 in 10.0 mi ESE 11.5 mph 18.4 mph 0.02 in Rain Light Rain
12:35 PM 39.0 °F 33.4 °F 35.8 °F 88% 29.89 in 10.0 mi ESE 8.1 mph 16.1 mph N/A   Mostly Cloudy
12:55 PM 39.2 °F 33.0 °F 35.6 °F 87% 29.87 in 10.0 mi ESE 9.2 mph - N/A   Scattered Clouds
1:15 PM 40.5 °F 32.5 °F 36.1 °F 85% 29.86 in 10.0 mi ESE 15.0 mph - N/A   Scattered Clouds
1:35 PM 41.5 °F 35.4 °F 35.6 °F 79% 29.85 in 10.0 mi ESE 10.4 mph 18.4 mph N/A   Scattered Clouds
1:55 PM 42.4 °F 37.0 °F 35.1 °F 75% 29.85 in 10.0 mi SE 9.2 mph - N/A   Mostly Cloudy
2:15 PM 42.3 °F 37.9 °F 34.2 °F 73% 29.84 in 10.0 mi SE 6.9 mph - N/A   Overcast
2:35 PM 42.4 °F 36.5 °F 34.0 °F 72% 29.83 in 10.0 mi SE 10.4 mph - N/A   Overcast
2:55 PM 43.0 °F 37.7 °F 33.4 °F 69% 29.83 in 10.0 mi SE 9.2 mph 16.1 mph N/A   Mostly Cloudy
3:35 PM 43.9 °F 37.9 °F 33.3 °F 66% 29.83 in 10.0 mi SE 11.5 mph 17.3 mph N/A   Drizzle
3:55 PM 42.8 °F 38.6 °F 35.2 °F 75% 29.83 in 10.0 mi ESE 6.9 mph - N/A   Light Drizzle
4:15 PM 42.3 °F 38.6 °F 36.1 °F 79% 29.83 in 10.0 mi ESE 5.8 mph - N/A   Light Drizzle
4:35 PM 42.3 °F 39.4 °F 36.5 °F 80% 29.83 in 10.0 mi ESE 4.6 mph - N/A   Light Drizzle
4:55 PM 41.9 °F 37.5 °F 36.5 °F 81% 29.83 in 10.0 mi ESE 6.9 mph - N/A   Drizzle
5:15 PM 41.7 °F 37.3 °F 37.0 °F 83% 29.83 in 10.0 mi SE 6.9 mph - 0.01 in   Drizzle
5:35 PM 41.5 °F 39.6 °F 37.8 °F 86% 29.83 in 10.0 mi ESE 3.5 mph - 0.01 in   Light Drizzle
6:15 PM 41.5 °F 39.6 °F 38.3 °F 88% 29.84 in 10.0 mi East 3.5 mph - N/A   Overcast
6:35 PM 41.5 °F - 38.5 °F 89% 29.84 in 10.0 mi Calm Calm - N/A   Overcast
6:55 PM 41.5 °F 37.8 °F 38.5 °F 89% 29.85 in 10.0 mi East 5.8 mph - N/A   Overcast
7:15 PM 41.5 °F - 38.3 °F 88% 29.85 in 10.0 mi Calm Calm - N/A   Overcast
7:35 PM 41.5 °F 39.6 °F 38.3 °F 88% 29.85 in 10.0 mi East 3.5 mph - N/A   Overcast
7:55 PM 41.5 °F 38.6 °F 38.1 °F 88% 29.85 in 10.0 mi East 4.6 mph - N/A   Overcast
8:15 PM 41.5 °F 37.8 °F 37.9 °F 87% 29.84 in 10.0 mi East 5.8 mph - N/A Rain Rain
8:35 PM 41.5 °F 38.6 °F 38.1 °F 88% 29.85 in 10.0 mi East 4.6 mph - N/A   Light Drizzle
8:55 PM 41.5 °F 39.6 °F 38.5 °F 89% 29.85 in 10.0 mi East 3.5 mph - N/A   Light Drizzle
9:15 PM 41.4 °F 39.4 °F 38.5 °F 89% 29.85 in 10.0 mi East 3.5 mph - N/A   Overcast
9:35 PM 40.1 °F 38.0 °F 37.4 °F 90% 29.85 in 10.0 mi ENE 3.5 mph - N/A   Overcast
9:55 PM 39.7 °F 37.6 °F 37.0 °F 90% 29.86 in 10.0 mi ENE 3.5 mph - N/A   Overcast
10:15 PM 39.7 °F 36.5 °F 37.0 °F 90% 29.86 in 10.0 mi ENE 4.6 mph - N/A   Overcast
10:35 PM 39.6 °F - 36.7 °F 89% 29.86 in 10.0 mi Calm Calm - N/A   Overcast
10:55 PM 39.2 °F - 36.5 °F 90% 29.86 in 10.0 mi Calm Calm - N/A   Overcast
11:15 PM 39.2 °F 35.9 °F 36.3 °F 89% 29.86 in 10.0 mi East 4.6 mph - N/A   Overcast
11:35 PM 39.2 °F 37.0 °F 36.1 °F 89% 29.86 in 10.0 mi ENE 3.5 mph - N/A   Overcast
11:55 PM 39.2 °F - 36.1 °F 89% 29.86 in 10.0 mi Calm Calm - N/A   Overcast